Weather in Novki

Russia / Vladimir Oblast     56°21′47″N   41°04′29″E
temp.,
°C
wind,
m/s
gust,
m/s
humid.,
%
clouds,
%
prec.,
mm/h
press.,
hPa
HPBL,
m
4 july, mon
mon400:00+15se228678 0.0 101614
03:00+16se227614 0.0 101542
06:00+18ne11759 0.0 101696
09:00+23ene22565 0.0 1016890
12:00+26ne33445 0.0 10151993
15:00+27ne44375 0.0 10142203
18:00+25ene44435 0.0 1015973
21:00+18e33608 0.0 101537
5 july, tue
tue500:00+15s22683 0.0 101611
03:00+14ese11745 0.0 101711
06:00+17s11665 0.0 101761
09:00+24sse12455 0.0 1017685
12:00+27sse22344 0.0 10161952
15:00+29sw22290 0.0 10152390
18:00+28sw12354 0.0 10141670
21:00+20sse3106221 0.0 1015170
6 july, wed
wed600:00+18sw357232 0.0 1015114
03:00+16sw369699 0.7 1016135
06:00+18ssw369037 0.1 1015219
09:00+24sw455690 0.1 1015769
12:00+28wsw344797 0.0 10141494
15:00+28w3549100 0.0 1013849
18:00+19ene228845 1.3 101320
21:00+19sse229036 2.9 101317
7 july, thu
thu700:00+18s359397 0.1 101289
03:00+18ssw3993100 0.1 1013167
06:00+19ssw4990100 0.0 1012288
09:00+24wsw576641 0.0 1013842
12:00+28wsw685359 0.0 10131697
15:00+28w575072 0.1 10141554
18:00+23nw2569100 0.5 1015247
21:00+19n118587 1.4 101511
8 july, fri
fri800:00+17ne22936 0.3 101627
03:00+16ene229365 0.3 101618
06:00+19ene019197 1.1 101794
09:00+22e238021 1.4 1016468
12:00+26s235819 2.7 10161191
15:00+29w364773 3.5 10142103
18:00+26nw236159 0.8 1014590
21:00+19ese119127 4.9 101513